Temperature
12 11 11 11 11 11 11 11 11 11 11 11 11 12 11 11 12 12 12 12 12 12 12 12 12 12 12 12 12 12 12 11 11 11 11 11 11 11 11 11 11 11 11
12 11 11 11 11 11 11 11 11 11 11 11 11 11 11 11 11 11 11 11 11 11 11 12 11 11 11 11 11 11 11 11 11 10 10 10 11 11 11 11 11 11 11
11 11 11 11 11 11 11 11 11 11 11 11 11 11 11 11 11 11 11 11 11 11 11 11 11 11 11 11 11 11 11 11 10 10 10 10 10 10 10 11 11 10 10
11 11 11 11 10 10 10 10 10 10 11 11 10 11 10 10 10 10 11 11 11 11 11 11 11 11 11 11 10 10 10 10 10 10 10 10 9 9 9 10 10 10 10
11 11 10 10 10 10 10 10 10 10 10 10 10 10 10 10 10 10 10 10 10 10 10 11 10 11 10 10 10 10 10 10 10 10 9 9 9 9 8 8 9 9 9
11 10 10 10 10 10 10 10 10 10 10 10 10 10 10 9 9 9 10 10 10 10 10 10 10 10 10 10 10 10 10 10 9 9 9 9 9 9 8 8 8 8 9
10 10 10 10 9 9 9 10 10 10 10 10 10 10 9 9 9 9 9 9 9 10 10 10 10 10 10 10 10 9 9 9 9 9 9 9 8 8 8 8 8 8 8
10 9 9 9 9 9 9 9 9 9 9 9 9 9 9 9 9 9 9 9 9 9 9 9 9 9 9 9 9 9 9 9 9 8 8 8 8 8 8 7 7 7 7
10 9 9 9 9 9 9 9 9 9 9 9 9 9 9 9 9 9 9 9 9 9 9 9 9 9 9 9 9 9 8 8 8 8 8 8 8 7 7 7 7 6 6
9 9 9 9 9 9 9 9 9 9 9 9 9 9 9 9 9 9 8 8 8 8 8 8 8 8 8 8 8 8 8 8 8 8 7 7 7 7 7 7 6 6 6
9 9 8 8 8 8 8 8 8 8 8 9 8 8 8 8 8 8 8 8 8 8 8 8 8 8 8 8 8 8 8 7 7 7 7 7 7 7 7 6 6 6 6
9 8 8 8 8 8 8 8 8 8 8 8 8 8 8 8 8 8 8 8 8 8 8 8 7 7 7 7 7 7 7 7 7 7 7 7 6 6 6 6 6 6 5
8 8 8 7 7 7 7 7 7 7 7 7 8 8 8 8 8 7 7 7 7 7 7 7 7 7 7 7 7 7 7 7 7 7 6 6 6 6 6 6 6 5 5
8 7 7 7 7 7 7 7 7 7 7 7 7 7 7 7 7 7 7 7 7 7 7 7 6 6 6 6 6 6 6 6 6 6 6 6 6 6 5 5 5 5 5
7 7 7 6 6 6 6 6 6 6 6 6 6 6 6 6 6 6 6 6 6 6 6 6 6 6 6 6 6 6 6 6 6 6 6 5 5 5 5 5 4 4 4
6 6 6 6 6 6 6 6 6 6 6 6 6 6 6 6 6 6 6 6 6 6 6 6 5 5 5 5 5 5 5 5 5 5 5 5 5 4 4 4 4 4 4
6 5 5 5 5 5 5 5 5 5 5 5 5 5 5 5 5 5 5 5 5 5 5 5 5 5 5 5 5 5 5 4 4 4 4 4 4 4 4 4 4 3 3
5 5 5 5 5 5 5 5 5 4 4 4 5 5 5 4 4 4 4 4 4 4 4 4 4 4 4 4 4 4 4 4 4 4 4 4 4 4 3 3 3 3 3
5 5 4 4 4 4 4 4 4 4 4 4 4 4 4 4 4 4 4 4 4 4 4 4 4 4 4 4 4 3 3 4 4 3 3 3 3 3 2 2 2 2 2
4 4 4 4 3 3 3 3 3 3 3 3 3 3 3 3 3 3 3 3 3 3 3 3 3 3 3 3 3 3 3 3 3 3 3 2 2 2 2 2 2 2 2
3 3 3 3 3 3 3 3 2 2 2 2 2 2 2 2 2 2 2 2 2 2 2 2 2 2 2 3 2 2 2 2 2 2 2 2 2 1 1 1 1 1 1
3 3 3 2 2 2 2 2 2 2 2 2 2 2 2 2 2 2 2 2 2 2 2 2 2 2 2 2 2 2 2 1 1 1 1 1 1 1 1 0 0 0 0
2 2 2 2 2 1 1 1 1 1 1 1 1 1 1 1 1 1 1 1 1 1 1 1 1 1 1 1 1 1 1 1 1 0 0 0 0 0 0 -0 -0 -0 -0
1 1 1 1 1 1 1 1 1 1 1 1 1 1 1 1 1 1 1 1 1 1 0 0 0 1 1 1 1 1 0 0 0 -0 -0 -0 -0 -0 -0 -0 -1 -1 -1
1 1 0 0 0 0 0 0 0 0 0 0 0 0 0 0 0 0 0 0 0 0 -0 -0 -0 -0 -0 0 0 -0 -0 -0 -0 -1 -1 -1 -1 -1 -1 -1 -1 -1 -1
-0 -0 -0 -0 -0 -0 -0 -0 -0 -0 -0 -0 -0 -0 -0 -0 -1 -1 -1 -1 -1 -1 -1 -1 -1 -1 -1 -1 -1 -1 -1 -1 -1 -1 -1 -1 -1 -1 -1 -1 -1 -1 -2
Wind_Speed
3 4 4 4 4 3 4 3 3 2 2 2 1 2 2 2 2 2 3 3 3 3 2 1 1 1 1 1 1 1 1 0 0 1 2 2 2 1 1 1 0 1 1
3 4 4 4 3 3 3 3 3 2 2 1 1 1 2 2 2 2 2 2 2 2 2 2 1 1 1 1 1 1 1 0 1 1 0 1 2 2 2 0 0 1 1
3 4 4 4 3 3 2 2 2 3 2 2 2 2 2 1 1 1 1 1 2 2 1 1 1 1 2 2 1 1 1 1 1 0 1 0 1 2 2 1 1 1 2
3 4 4 4 3 3 2 2 2 2 2 3 2 2 2 2 1 2 2 2 2 2 2 1 1 2 1 1 2 1 1 2 2 1 0 1 0 0 2 3 2 2 2
4 4 4 4 4 4 3 3 2 2 2 2 2 2 2 2 1 2 3 2 2 2 2 2 2 2 2 2 2 1 1 1 2 1 1 1 1 1 1 3 3 3 2
4 4 4 5 4 4 3 3 2 1 1 2 2 3 2 2 2 2 2 2 2 1 2 2 2 1 2 2 2 2 2 1 1 1 1 1 1 1 1 2 3 3 3
4 4 4 4 3 3 3 2 2 1 1 2 3 3 3 3 3 2 2 2 1 1 1 1 2 2 2 2 2 2 2 2 2 1 1 1 2 1 1 2 3 3 3
4 3 3 3 3 3 3 2 2 1 1 2 3 2 2 2 2 2 2 2 2 1 1 1 1 1 1 1 2 2 2 2 2 2 2 2 2 2 2 2 2 3 3
3 4 3 3 3 3 2 2 2 1 1 3 3 3 2 2 2 2 1 1 1 1 2 1 1 1 1 2 2 2 2 2 3 3 3 2 2 2 2 1 2 2 3
2 3 3 2 2 2 2 2 2 1 1 2 2 2 2 2 2 2 2 2 2 2 2 2 2 2 2 2 2 2 2 3 3 2 3 2 2 2 2 2 2 2 3
2 3 3 3 3 3 2 2 1 1 1 1 2 2 1 2 2 2 2 2 2 2 2 2 2 2 2 2 3 3 3 3 3 3 3 3 3 2 2 2 2 2 3
2 2 2 2 2 2 2 2 2 2 1 1 1 1 2 2 2 2 2 2 2 2 2 2 2 2 2 3 3 4 4 4 4 3 3 4 3 3 3 3 3 3 3
1 1 2 2 2 2 2 2 2 2 2 1 1 0 1 1 1 1 2 2 2 2 2 2 3 3 3 3 3 4 4 4 4 4 4 4 3 4 3 3 3 3 3
1 1 1 1 1 1 1 2 1 2 2 2 2 1 1 1 2 1 1 1 1 2 2 2 2 2 2 2 2 3 3 3 3 3 4 4 4 4 4 4 4 4 4
1 2 2 2 2 1 1 1 1 1 1 1 1 1 1 1 1 1 1 1 2 2 2 2 2 2 2 2 2 2 3 3 3 3 3 4 4 5 5 4 4 4 4
2 2 2 1 2 2 1 1 1 1 1 1 1 1 1 1 1 1 1 2 2 2 2 2 3 2 2 4 5 4 3 3 4 4 4 4 4 5 7 7 7 6 5
2 2 2 2 2 2 2 2 1 0 1 1 1 1 1 1 2 2 2 2 2 2 3 3 3 3 4 5 6 6 4 4 4 4 4 4 4 5 4 6 7 7 10
2 2 2 2 2 1 1 1 1 1 1 2 2 2 2 2 2 2 2 3 3 3 3 3 3 4 4 6 6 7 5 4 5 4 4 4 5 5 4 4 4 5 6
3 2 2 1 1 1 1 1 2 2 2 3 3 3 2 2 2 3 3 3 3 3 4 4 4 4 5 6 7 7 3 4 5 5 5 5 5 8 7 5 5 6 6
3 3 2 2 1 2 1 1 2 2 3 3 3 3 3 3 3 4 4 3 3 4 4 5 5 5 5 7 8 7 3 4 5 4 5 8 8 8 8 6 6 7 6
3 2 2 2 2 2 1 2 3 4 4 3 3 3 3 4 4 4 3 4 4 4 5 5 5 5 6 8 9 8 5 5 5 5 4 5 9 10 10 9 7 9 7
3 3 2 2 2 2 2 3 4 4 3 3 3 4 4 4 4 4 4 4 4 5 5 5 6 5 5 7 8 9 9 7 6 6 5 5 9 10 11 9 9 11 8
3 2 3 3 3 2 2 4 4 3 3 3 4 4 5 5 5 5 5 5 5 5 5 5 5 5 4 5 9 10 11 11 7 6 8 9 10 10 8 10 11 9 5
4 3 3 3 4 3 3 4 4 3 3 4 5 5 5 5 5 5 5 5 5 5 5 5 5 5 5 4 4 5 6 8 7 6 8 10 11 9 9 8 7 6 6
4 3 3 4 4 4 4 4 4 4 4 5 5 5 5 5 5 5 5 6 6 7 7 6 6 6 7 7 8 6 5 5 6 5 4 4 5 5 5 5 5 5 5
4 4 4 4 5 5 5 4 4 4 4 5 5 4 4 4 4 5 6 8 9 10 12 12 10 9 11 12 13 12 12 11 10 7 5 6 6 7 7 6 6 6 6
Wind_Direction
119 108 104 104 101 93 89 88 93 97 90 88 129 138 129 106 96 99 117 138 138 133 136 142 126 121 148 182 164 92 54 350 9 24 336 310 282 279 274 259 284 304 247
117 107 102 96 87 91 98 96 86 85 97 101 109 113 110 99 103 94 95 118 128 130 147 144 155 150 140 133 106 93 90 357 37 96 88 330 329 331 294 272 250 315 348
142 133 118 107 99 92 98 106 112 104 95 91 82 89 87 77 85 104 110 120 128 125 126 136 149 151 153 173 173 142 118 166 302 37 129 157 252 324 322 335 355 354 350
139 134 127 122 119 114 104 106 120 121 124 121 126 137 136 145 158 141 141 142 139 134 134 152 160 159 160 172 190 158 163 170 202 253 231 209 168 187 313 319 334 346 327
135 132 133 133 120 111 110 104 106 124 133 142 156 162 136 125 117 118 135 141 142 152 146 140 164 167 174 186 189 170 193 197 201 206 249 278 292 219 219 275 304 318 306
125 122 116 110 102 100 104 106 108 125 133 150 169 179 166 159 138 133 142 151 149 160 161 151 162 174 184 190 186 184 200 223 226 228 237 235 225 230 228 258 287 294 293
121 119 115 114 114 115 119 125 131 163 172 179 187 186 187 181 175 171 178 169 157 158 172 127 155 173 195 196 182 186 202 207 206 221 242 254 257 255 257 264 278 290 293
119 119 126 131 132 138 144 143 147 166 223 190 188 182 178 173 176 182 181 180 170 150 134 121 158 170 199 199 179 189 208 212 206 223 236 249 262 259 248 236 261 294 291
129 136 137 138 139 145 153 153 146 171 206 183 177 174 178 176 177 178 179 175 163 155 158 161 168 170 194 204 194 201 217 219 214 219 227 235 249 247 246 234 216 233 277
139 146 149 151 147 147 137 133 141 163 160 163 166 164 180 173 171 167 185 185 184 181 179 185 192 190 198 205 204 217 223 224 229 221 220 233 237 237 234 232 238 229 243
169 168 158 159 155 148 149 148 147 140 125 136 153 157 172 173 173 179 193 192 193 191 192 201 210 211 219 216 210 217 222 227 236 234 224 232 230 230 233 234 238 249 247
157 152 154 148 151 157 159 160 161 149 143 131 134 165 174 175 178 183 198 200 206 202 196 204 219 229 231 228 221 224 227 228 230 230 228 237 235 231 232 231 235 243 245
159 144 144 151 166 169 166 163 164 163 156 136 129 166 193 180 197 208 212 208 209 209 204 205 218 223 229 237 236 229 230 231 231 228 228 235 230 238 237 237 241 246 254
206 192 189 174 179 173 172 173 176 160 155 154 156 180 213 212 212 216 221 216 213 217 214 212 220 222 222 232 241 238 239 243 245 238 233 233 230 236 239 243 243 245 254
273 260 254 227 192 188 205 174 156 147 159 167 173 198 210 234 220 207 235 238 228 229 222 216 223 223 220 222 228 244 245 243 251 254 247 240 237 237 242 245 241 241 250
276 272 260 251 231 201 203 211 200 167 156 188 226 230 218 226 238 243 252 259 251 239 228 222 224 230 236 245 249 249 244 243 242 250 254 250 246 249 254 254 252 245 245
278 263 277 267 263 227 192 205 226 192 184 215 245 251 242 241 243 248 253 257 258 253 243 232 228 230 236 250 256 259 251 245 244 244 248 262 255 252 247 256 260 263 259
303 288 274 275 281 273 204 190 195 201 219 238 245 250 246 254 257 255 252 259 259 252 252 248 239 238 241 249 257 264 253 245 244 242 242 248 253 250 249 249 254 254 258
315 312 306 302 300 284 252 215 218 223 232 243 246 249 242 245 253 257 253 252 254 254 251 248 242 240 246 249 254 260 245 245 249 246 242 242 246 253 256 250 251 259 262
323 329 336 339 316 288 269 243 239 235 240 246 248 245 241 242 244 245 249 251 249 249 249 249 242 236 240 249 253 253 236 245 253 252 244 245 252 259 258 248 245 255 260
326 323 312 292 277 279 273 257 253 248 248 249 250 247 242 243 246 249 248 246 248 250 251 254 250 241 240 248 252 249 237 236 246 252 251 248 255 262 264 262 252 255 258
297 298 290 281 272 262 262 263 259 256 252 250 253 253 250 249 251 249 252 247 244 244 249 254 258 252 244 243 251 250 248 248 246 253 254 254 259 263 264 264 262 264 265
276 280 280 282 281 270 256 267 272 268 259 256 255 255 253 249 244 242 246 249 246 244 247 247 255 258 250 246 250 251 251 251 250 252 253 259 263 263 263 261 262 262 254
282 278 278 276 279 278 264 258 266 262 250 253 257 253 250 253 249 245 241 240 242 243 247 247 251 256 257 248 242 245 252 253 254 256 260 263 262 258 255 259 257 247 240
283 275 271 272 276 280 273 266 264 261 256 255 258 260 253 253 255 253 246 245 243 239 241 245 244 249 257 255 253 255 251 244 245 256 258 257 257 250 247 246 246 241 240
275 274 272 274 278 278 275 270 263 256 256 259 258 256 255 255 255 260 269 257 254 258 254 252 251 256 259 266 265 265 264 263 260 262 254 251 249 248 248 249 247 239 236
Height
1475 1475 1476 1477 1478 1479 1480 1481 1482 1483 1483 1484 1485 1486 1488 1490 1493 1495 1496 1498 1500 1502 1503 1505 1507 1508 1509 1510 1512 1513 1514 1514 1515 1516 1516 1516 1517 1517 1518 1518 1518 1518 1518
1473 1474 1475 1476 1477 1478 1479 1480 1481 1482 1482 1483 1484 1485 1486 1488 1491 1493 1494 1495 1497 1499 1501 1503 1504 1505 1507 1508 1509 1510 1511 1512 1513 1513 1513 1513 1515 1515 1515 1515 1515 1515 1515
1472 1473 1474 1475 1476 1477 1478 1480 1481 1482 1483 1483 1484 1485 1485 1487 1488 1490 1491 1493 1494 1496 1498 1500 1501 1502 1504 1505 1507 1508 1509 1510 1511 1512 1513 1512 1512 1512 1512 1512 1513 1513 1512
1471 1472 1473 1474 1475 1476 1478 1479 1480 1481 1482 1483 1484 1484 1484 1485 1487 1488 1489 1491 1492 1494 1496 1497 1499 1500 1502 1503 1504 1505 1506 1507 1508 1509 1510 1511 1511 1511 1509 1510 1510 1510 1510
1470 1471 1472 1474 1475 1475 1476 1477 1478 1480 1481 1481 1482 1483 1483 1484 1485 1486 1487 1489 1490 1492 1494 1495 1496 1498 1499 1500 1501 1503 1504 1505 1505 1506 1507 1507 1508 1508 1508 1506 1506 1506 1506
1470 1471 1472 1472 1473 1474 1475 1476 1477 1478 1479 1480 1481 1482 1483 1484 1484 1484 1486 1487 1488 1490 1491 1492 1493 1495 1496 1497 1498 1500 1501 1502 1503 1503 1504 1504 1505 1505 1505 1504 1503 1502 1502
1469 1470 1471 1471 1472 1473 1474 1475 1476 1476 1477 1478 1479 1480 1481 1482 1483 1483 1484 1485 1486 1487 1488 1489 1491 1492 1493 1494 1495 1497 1498 1499 1499 1500 1501 1501 1502 1502 1502 1502 1500 1499 1499
1468 1469 1470 1471 1471 1472 1473 1474 1474 1474 1475 1475 1476 1478 1479 1480 1481 1482 1483 1483 1483 1484 1486 1487 1488 1489 1490 1491 1492 1493 1494 1495 1496 1497 1498 1498 1498 1498 1499 1499 1498 1496 1495
1468 1469 1470 1470 1471 1471 1472 1473 1472 1473 1473 1473 1475 1476 1477 1478 1479 1480 1480 1481 1481 1482 1484 1485 1485 1486 1487 1488 1489 1490 1491 1492 1493 1494 1494 1494 1494 1495 1495 1495 1495 1495 1493
1467 1468 1469 1470 1470 1471 1471 1472 1471 1471 1471 1472 1473 1474 1475 1476 1477 1477 1478 1478 1479 1480 1481 1482 1482 1483 1484 1485 1486 1487 1488 1489 1490 1490 1491 1490 1491 1491 1491 1491 1491 1491 1491
1466 1467 1468 1468 1469 1469 1470 1470 1470 1470 1470 1471 1471 1472 1473 1474 1474 1475 1476 1476 1477 1478 1479 1479 1480 1480 1481 1482 1483 1483 1484 1485 1486 1486 1487 1487 1487 1487 1487 1487 1487 1487 1487
1465 1465 1466 1467 1467 1468 1468 1468 1468 1468 1468 1469 1470 1470 1471 1471 1472 1473 1474 1474 1475 1476 1476 1477 1477 1477 1478 1478 1479 1480 1481 1481 1482 1482 1483 1483 1483 1483 1483 1483 1482 1482 1482
1463 1464 1464 1465 1465 1466 1466 1467 1467 1467 1467 1467 1467 1468 1469 1469 1470 1470 1471 1472 1472 1473 1473 1473 1474 1474 1474 1475 1475 1476 1477 1477 1477 1478 1478 1479 1479 1478 1479 1478 1478 1478 1477
1462 1462 1462 1462 1463 1463 1463 1464 1464 1464 1465 1465 1465 1466 1466 1466 1467 1467 1468 1468 1469 1469 1470 1470 1470 1470 1470 1471 1472 1472 1472 1473 1473 1473 1474 1474 1474 1474 1474 1474 1473 1473 1472
1460 1460 1460 1460 1461 1461 1461 1461 1461 1462 1462 1462 1463 1463 1463 1464 1464 1464 1465 1465 1465 1465 1465 1465 1466 1466 1466 1467 1467 1468 1468 1468 1468 1468 1469 1469 1469 1469 1469 1469 1468 1468 1467
1458 1458 1458 1458 1458 1458 1458 1458 1458 1459 1459 1460 1460 1460 1460 1460 1460 1460 1460 1461 1461 1461 1461 1461 1461 1462 1462 1463 1463 1464 1464 1463 1463 1463 1463 1463 1464 1464 1464 1463 1463 1463 1462
1455 1455 1455 1456 1456 1456 1456 1456 1456 1456 1456 1456 1457 1457 1457 1457 1457 1457 1457 1457 1457 1457 1457 1457 1457 1458 1458 1459 1459 1460 1459 1459 1458 1458 1458 1458 1458 1458 1458 1458 1457 1457 1457
1453 1453 1453 1452 1452 1453 1453 1453 1453 1453 1453 1453 1453 1454 1454 1454 1453 1453 1453 1453 1453 1453 1453 1453 1453 1454 1454 1455 1455 1455 1455 1454 1454 1453 1453 1453 1453 1453 1452 1452 1451 1450 1450
1450 1450 1450 1449 1449 1449 1449 1449 1449 1449 1449 1449 1449 1450 1450 1450 1449 1449 1450 1450 1450 1449 1450 1449 1449 1449 1449 1450 1450 1450 1449 1449 1448 1448 1448 1448 1447 1447 1447 1446 1445 1444 1444
1447 1447 1446 1446 1445 1445 1446 1446 1446 1446 1445 1446 1446 1446 1446 1446 1445 1445 1445 1445 1445 1445 1445 1445 1445 1444 1444 1445 1445 1445 1444 1443 1442 1442 1442 1442 1441 1441 1440 1440 1439 1438 1438
1444 1444 1443 1442 1442 1442 1442 1441 1441 1441 1442 1442 1442 1442 1441 1441 1441 1441 1441 1441 1441 1440 1440 1440 1439 1439 1439 1439 1439 1439 1438 1437 1436 1436 1436 1436 1435 1435 1434 1434 1433 1432 1432
1441 1440 1440 1439 1439 1438 1438 1437 1437 1437 1437 1437 1437 1437 1437 1436 1436 1436 1436 1436 1435 1435 1434 1434 1433 1433 1433 1433 1433 1433 1432 1432 1431 1430 1430 1430 1429 1429 1428 1428 1427 1427 1427
1438 1437 1436 1435 1435 1434 1434 1434 1433 1433 1433 1433 1432 1432 1432 1431 1431 1431 1430 1430 1429 1429 1428 1428 1427 1427 1427 1427 1427 1426 1426 1425 1425 1424 1424 1423 1423 1422 1421 1421 1421 1420 1420
1434 1433 1432 1431 1430 1430 1430 1430 1429 1429 1428 1428 1427 1427 1427 1426 1425 1425 1424 1424 1423 1423 1422 1422 1421 1421 1421 1421 1421 1420 1420 1419 1419 1418 1417 1416 1416 1415 1414 1414 1414 1413 1413
1430 1429 1428 1427 1426 1426 1426 1425 1425 1424 1423 1423 1422 1422 1421 1421 1420 1419 1419 1418 1417 1417 1417 1416 1416 1415 1414 1414 1415 1414 1413 1413 1412 1411 1410 1409 1408 1407 1407 1407 1407 1406 1407
1425 1425 1424 1423 1422 1422 1421 1421 1420 1419 1419 1418 1417 1416 1416 1415 1414 1413 1412 1411 1412 1411 1410 1410 1409 1408 1409 1408 1408 1407 1407 1406 1406 1405 1403 1402 1401 1400 1400 1400 1400 1400 1400